This demonstration page uses our WeatherBlox Daily Observations layout. Learn more.

Left ArrowRight Arrow

39.51506, -84.39828

Hourly Observations for February 25, 2017

Temp ( °F °C ) Dew Point ( °F °C ) Humidity (%) Winds ( mph kmh ) Pressure ( in mb ) Visibility ( mi km ) Precip ( " mm )
12:15 am 00:15 Mostly Cloudy 55 12.5 40 4.6 59 59 undefined N/A 29.62 1003 10 16 0.00 0.00
12:35 am 00:35 Cloudy 55 12.5 41 4.8 60 60 undefined N/A 29.65 1004 10 16 0.00 0.00
12:55 am 00:55 Cloudy 52 11.1 38 3.6 60 60 undefined N/A 29.68 1005 10 16 0.00 0.00
1:15 am 01:15 Cloudy 52 10.9 40 4.2 64 64 undefined N/A 29.68 1005 10 16 0.00 0.00
1:35 am 01:35 Cloudy 50 10.2 39 4.1 66 66 undefined N/A 29.68 1005 10 16 0.00 0.00
1:55 am 01:55 Mostly Cloudy 49 9.6 38 3.3 65 65 undefined N/A 29.68 1005 10 16 0.00 0.00
2:15 am 02:15 Partly Cloudy 49 9.6 38 3.1 64 64 undefined N/A 29.68 1005 N/A 0.00 0.00
2:35 am 02:35 Mostly Cloudy 49 9.6 37 2.8 63 63 undefined N/A 29.71 1006 N/A 0.00 0.00
2:55 am 02:55 Cloudy 49 9.6 37 2.9 63 63 undefined N/A 29.71 1006 10 16 0.00 0.00
3:15 am 03:15 Mostly Cloudy 49 9.6 33 0.8 55 55 undefined N/A 29.71 1006 10 16 0.00 0.00
3:35 am 03:35 Partly Cloudy 47 8.2 32 0 57 57 undefined N/A 29.71 1006 10 16 0.00 0.00
3:55 am 03:55 Partly Cloudy 43 6.2 31 -0.5 63 63 undefined N/A 29.71 1006 10 16 0.00 0.00
4:15 am 04:15 Clear 43 6.1 31 -0.6 63 63 undefined N/A 29.71 1006 10 16 0.00 0.00
4:35 am 04:35 Clear 42 5.6 31 -0.8 64 64 undefined N/A 29.71 1006 10 16 0.00 0.00
4:55 am 04:55 Mostly Cloudy 43 5.9 31 -0.4 64 64 undefined N/A 29.71 1006 10 16 0.00 0.00
5:15 am 05:15 Partly Cloudy 42 5.6 31 -0.6 65 65 undefined N/A 29.71 1006 10 16 0.00 0.00
5:35 am 05:35 Mostly Cloudy 43 6.2 31 -0.6 62 62 undefined N/A 29.71 1006 10 16 0.00 0.00
5:55 am 05:55 Cloudy 43 6.2 31 -0.6 62 62 undefined N/A 29.71 1006 10 16 0.00 0.00
6:15 am 06:15 Partly Cloudy 42 5.6 31 -0.7 64 64 undefined N/A 29.71 1006 10 16 0.00 0.00
6:35 am 06:35 Mostly Cloudy 43 6.1 31 -0.3 64 64 undefined N/A 29.71 1006 10 16 0.00 0.00
6:55 am 06:55 Cloudy 42 5.5 32 -0.1 68 68 undefined N/A 29.74 1007 N/A 0.00 0.00
7:15 am 07:15 Cloudy 41 5.1 30 -1.1 65 65 undefined N/A 29.74 1007 10 16 0.00 0.00
7:35 am 07:35 Cloudy 41 5.1 28 -2.2 60 60 undefined N/A 29.74 1007 10 16 0.00 0.00
7:55 am 07:55 Cloudy 39 4 26 -3.2 60 60 undefined N/A 29.77 1008 10 16 0.00 0.00
8:15 am 08:15 Cloudy 39 4 24 -4.6 54 54 undefined N/A 29.80 1009 10 16 0.00 0.00
8:35 am 08:35 Cloudy 39 4 23 -5 52 52 undefined N/A 29.80 1009 10 16 0.00 0.00
8:55 am 08:55 Cloudy 39 4 22 -5.4 51 51 undefined N/A 29.80 1009 10 16 0.00 0.00
9:15 am 09:15 Cloudy 39 4 23 -5 52 52 undefined N/A 29.80 1009 10 16 0.00 0.00
9:35 am 09:35 Cloudy with Light Snow 37 2.6 24 -4.4 60 60 undefined N/A 29.83 1010 10 16 0.00 0.00
9:55 am 09:55 Cloudy 37 2.7 25 -4 62 62 undefined N/A 29.83 1010 10 16 0.00 0.00
10:15 am 10:15 Cloudy with Light Snow 34 1.2 28 -2.5 77 77 undefined N/A 29.88 1012 1 2 0.00 0.00
10:35 am 10:35 Cloudy with Light Snow 37 2.6 28 -2.1 71 71 undefined N/A 29.85 1011 10 16 0.00 0.00
10:55 am 10:55 Cloudy 37 2.6 26 -3.1 66 66 undefined N/A 29.85 1011 N/A 0.00 0.00
11:15 am 11:15 Cloudy 36 2.3 26 -3.5 66 66 undefined N/A 29.85 1011 N/A 0.00 0.00
11:35 am 11:35 Cloudy 36 2.2 24 -4.3 63 63 undefined N/A 29.85 1011 10 16 0.00 0.00
11:55 am 11:55 Cloudy 34 1.2 23 -5.1 63 63 undefined N/A 29.91 1013 10 16 0.00 0.00
12:15 pm 12:15 Cloudy with Drizzle 34 1.2 24 -4.6 66 66 undefined N/A 29.91 1013 10 16 0.00 0.00
12:35 pm 12:35 Cloudy 34 1.2 23 -4.9 64 64 undefined N/A 29.91 1013 10 16 0.00 0.00
12:55 pm 12:55 Cloudy with Light Snow 34 1.2 22 -5.5 61 61 undefined N/A 29.94 1014 10 16 0.00 0.00
1:15 pm 13:15 Cloudy with Drizzle 34 1.2 23 -5.2 63 63 undefined N/A 29.94 1014 10 16 0.00 0.00
1:35 pm 13:35 Cloudy 34 1.2 17 -8.1 50 50 undefined N/A 29.94 1014 10 16 0.00 0.00
1:55 pm 13:55 Cloudy 34 1.2 17 -8.5 49 49 undefined N/A 29.94 1014 10 16 0.00 0.00
2:15 pm 14:15 Cloudy 34 1.2 17 -8.5 49 49 undefined N/A 29.97 1015 10 16 0.00 0.00
2:35 pm 14:35 Cloudy 34 1.2 17 -8.3 50 50 undefined N/A 29.97 1015 10 16 0.00 0.00
2:55 pm 14:55 Cloudy 34 1.2 18 -7.9 51 51 undefined N/A 29.97 1015 10 16 0.00 0.00
3:15 pm 15:15 Cloudy 34 1.2 18 -7.8 52 52 undefined N/A 29.97 1015 10 16 0.00 0.00
3:35 pm 15:35 Cloudy 34 1 18 -7.8 52 52 undefined N/A 30.00 1016 10 16 0.00 0.00
3:55 pm 15:55 Cloudy 32 0 17 -8.5 53 53 undefined N/A 30.00 1016 10 16 0.00 0.00
4:15 pm 16:15 Cloudy 34 1.2 17 -8.1 50 50 undefined N/A 30.00 1016 10 16 0.00 0.00
4:35 pm 16:35 Cloudy 34 1.2 17 -8.5 49 49 undefined N/A 30.00 1016 N/A 0.00 0.00
4:55 pm 16:55 Cloudy 34 1.2 18 -7.9 51 51 undefined N/A 30.03 1017 10 16 0.00 0.00
5:15 pm 17:15 Cloudy 34 1.2 18 -7.6 52 52 undefined N/A 30.03 1017 N/A 0.00 0.00
5:35 pm 17:35 Cloudy 34 1.2 18 -7.9 51 51 undefined N/A 30.03 1017 10 16 0.00 0.00
5:55 pm 17:55 Cloudy 34 1.2 17 -8.3 50 50 undefined N/A 30.03 1017 10 16 0.00 0.00
6:15 pm 18:15 Cloudy 34 1.2 17 -8.1 50 50 undefined N/A 30.03 1017 10 16 0.00 0.00
6:35 pm 18:35 Cloudy 34 1.2 17 -8.3 50 50 undefined N/A 30.06 1018 10 16 0.00 0.00
6:55 pm 18:55 Cloudy 34 1.2 15 -9.2 46 46 undefined N/A 30.06 1018 10 16 0.00 0.00
7:15 pm 19:15 Cloudy 34 1.2 15 -9.7 44 44 undefined N/A 30.06 1018 10 16 0.00 0.00
7:35 pm 19:35 Cloudy 34 1.2 15 -9.5 45 45 undefined N/A 30.06 1018 10 16 0.00 0.00
7:55 pm 19:55 Cloudy 34 1.2 14 -10 43 43 undefined N/A 30.06 1018 10 16 0.00 0.00
8:15 pm 20:15 Cloudy 34 1.2 14 -10 43 43 undefined N/A 30.06 1018 10 16 0.00 0.00
8:35 pm 20:35 Cloudy 34 1.2 14 -10 43 43 undefined N/A 30.09 1019 10 16 0.00 0.00
8:55 pm 20:55 Cloudy 34 1.2 16 -8.8 48 48 undefined N/A 30.09 1019 10 16 0.00 0.00
9:15 pm 21:15 Cloudy 34 1.2 17 -8.6 48 48 undefined N/A 30.09 1019 10 16 0.00 0.00
9:35 pm 21:35 Cloudy 34 1.2 17 -8.5 49 49 undefined N/A 30.09 1019 10 16 0.00 0.00
9:55 pm 21:55 Partly Cloudy 32 -0.1 16 -8.7 53 53 undefined N/A 30.09 1019 10 16 0.00 0.00
10:15 pm 22:15 Clear 31 -0.7 16 -8.9 54 54 undefined N/A 30.09 1019 10 16 0.00 0.00
10:35 pm 22:35 Clear 29 -1.5 16 -9 57 57 undefined N/A 30.09 1019 10 16 0.00 0.00
10:55 pm 22:55 Clear 29 -1.5 17 -8.6 59 59 undefined N/A 30.09 1019 10 16 0.00 0.00
11:15 pm 23:15 Clear 29 -1.5 17 -8.3 60 60 undefined N/A 30.09 1019 10 16 0.00 0.00
11:35 pm 23:35 Clear 29 -1.5 18 -7.8 63 63 undefined N/A 30.12 1020 10 16 0.00 0.00
11:55 pm 23:55 Clear 29 -1.5 18 -7.6 64 64 undefined N/A 30.12 1020 10 16 0.00 0.00

Powered by AerisWeather